Simultaneous Nadir Overpasses (SNOs) Predictions

Prediction of SNOs between METOP-A and TERRA Satellite Orbit:

Table of predicted SNOs for the next 14.0 days since TLE Epoch: 8/29/2020
Index Date (METOP-A) Time (METOP-A) Lat,Lon (METOP-A) SZA (METOP-A ) Date (TERRA) Time (TERRA) Lat,Lon (TERRA) SZA (TERRA ) Distance(km) Time Diff (sec)
1 08/30/2020 10:04:12 81.40, 77.65 75.59 08/30/2020 10:04:37 81.39, 77.74 75.61 1.86 25
2 08/30/2020 10:54:52 -81.39,-114.71 104.37 08/30/2020 10:54:04 -81.38,-114.75 104.40 1.09 48
3 09/02/2020 05:38:34 81.39, 144.30 76.66 09/02/2020 05:38:51 81.39, 144.21 76.65 1.57 17
4 09/02/2020 06:29:15 -81.39, -48.41 103.34 09/02/2020 06:28:18 -81.38, -48.26 103.36 2.60 57
5 09/05/2020 01:12:58 81.39,-149.45 77.70 09/05/2020 01:13:06 81.39,-149.36 77.71 1.52 8
6 09/05/2020 02:03:38 -81.38, 18.27 102.26 09/05/2020 02:02:33 -81.38, 18.21 102.29 1.15 65
7 09/07/2020 19:56:41 -81.39, 109.64 101.25 09/07/2020 19:57:54 -81.40, 109.72 101.20 1.96 73
8 09/07/2020 20:47:21 81.38, -82.81 78.79 09/07/2020 20:47:21 81.39, -82.95 78.78 2.33 0
9 09/07/2020 21:38:02 -81.38, 84.54 101.20 09/07/2020 21:36:48 -81.38, 84.64 101.22 1.63 74
10 09/10/2020 15:31:04 -81.39, 175.91 100.18 09/10/2020 15:32:09 -81.38, 175.74 100.17 3.00 65
